www.pogodaiklimat.ru

Погода и климат >> Архив погоды >> Мексика >> Hidalgo del Parral


ПОГОДА в Hidalgo del Parral

  • Прогноз погоды в Hidalgo del Parral
  • Монитор погоды в Hidalgo del Parral
  • Климат города

АРХИВ ПОГОДЫ в Hidalgo del Parral

Время (UTC), дата Ветер
(напр.,м/с)
 
Видим.   Явления Облачность Т
(С)
Тd
(С)
f
(%)
Тe
(С)
Тes
(С)
Комфортность P
(гПа)
Po
(гПа)
Тmin
(С)
Tmax
(С)
R
(мм)
R24
(мм)
S
(см)
12 17.11 штиль 0 1000 м ясно +12.8 +4.4 57 +13 +13 1020.7 829.8 +12.8 +30.6
15 17.11 С 1 10 км ясно +13.8 +6.1 60 +14 +16 1022.7 830.5
18 17.11 С 1 10 км ясно +27.2 +2.3 20 +26 +36 жарко 1020.2 829.9 +10.4 +27.4
21 17.11 С 1 10 км ясно +30.2 +4.5 20 +28 +37 жарко 1014.5 827.5
00 18.11 С 1 10 км ясно +26.5 +2.3 21 +25 +25 комфорт 1010.5 826.5 +10.4 +30.6
03 18.11 СЗ 2 1000 м ясно +20.4 +4.5 35 +22 +22 комфорт 1010.7 827.9
12 18.11 СЗ 1 1000 м ясно +13.6 +8.4 71 +14 +14 1017.0 828.4 +13.6 +30.6
15 18.11 СЗ 2 10 км ясно +14.6 +7.8 64 +14 +16 1019.6 829.4
18 18.11 С 3 10 км ясно +24.4 -1.3 18 +23 +31 комфорт 1019.3 829.6 +12.8 +24.8
21 18.11 С 3 10 км ясно +26.6 -0.8 17 +25 +30 комфорт 1016.0 828.4
00 19.11 С 2 10 км ясно +22.0 -4.4 17 +21 +21 комфорт 1014.1 828.3 +12.8 +26.6
03 19.11 СЗ 1 1000 м ясно +14.4 -0.8 35 +15 +15 1015.3 829.7
12 19.11 штиль 0 1000 м ясно +5.8 +1.2 72 +5 +5 1025.8 831.4 +5.8 +26.6
15 19.11 штиль 0 10 км ясно +6.4 -1.0 59 +6 +8 1029.1 832.3
18 19.11 ЮЗ 2 10 км 1/0
[Cs]
+17.0 +3.1 39 +17 +26 1025.1 829.7 +3.8 +17.8
21 19.11 СЗ 2 10 км 5/0 2000 м
[Ac trans Cs]
+21.0 +3.2 31 +22 +28 комфорт 1020.6 827.8
00 20.11 ЮВ 2 10 км ясно +19.4 +4.0 36 +20 +20 1016.8 826.8 +3.8 +22.4
03 20.11 СЗ 3 1000 м ясно +14.2 +4.4 52 +13 +13 1016.0 827.6
06 20.11 С 1 1000 м ясно +9.4 +2.9 64 +9 +9 1017.1 827.9 +3.8 +22.4
09 20.11 СВ 1 1000 м ясно +6.6 +1.3 69 +6 +6 1019.4 827.9
12 20.11 С 1 1000 м ясно +4.7 +1.5 80 +3 +3 1021.4 827.1 +4.1 +22.4
15 20.11 штиль 0 10 км ясно +5.8 +2.0 77 +5 +7 1026.1 829.4
18 20.11 С 1 10 км 3/0
[Cs]
+21.4 +1.7 27 +21 +31 комфорт 1024.4 829.1 +3.4 +21.6
21 20.11 СЗ 3 10 км 4/0
[Cs]
+25.2 -3.9 14 +23 +28 комфорт 1018.7 827.0
00 21.11 С 1 10 км ясно +23.2 -1.8 19 +22 +22 комфорт 1012.8 825.1 +3.4 +25.6
03 21.11 С 1 1000 м ясно +13.2 +4.6 56 +14 +14 1011.7 825.8
06 21.11 СЗ 1 1000 м ясно +9.2 +0.8 56 +9 +9 1014.9 827.4 +3.4 +25.6
09 21.11 СЗ 1 1000 м ясно +7.4 +0.4 61 +7 +7 1017.5 827.1
12 21.11 С 1 1000 м 1/0
[Ci fib]
+10.6 +2.0 55 +11 +11 1019.5 826.6 +7.3 +25.6
15 21.11 штиль 0 10 км 9/0
[Cs]
+10.2 +2.7 60 +10 +11 1022.9 828.2
18 21.11 С 3 10 км 5/0
[Cs]
+22.8 -2.6 18 +21 +28 комфорт 1022.2 828.9 +7.3 +23.2
21 21.11 С 2 10 км 6/0
[Cs]
+25.0 -3.6 15 +23 +29 комфорт 1017.0 827.2
00 22.11 С 1 10 км 8/0
[Cs]
+23.2 -2.4 18 +22 +22 комфорт 1013.4 826.4 +7.3 +25.6
03 22.11 С 1 1000 м 5/0
[Ci sp]
+14.8 -0.8 34 +16 +16 1014.1 828.2
06 22.11 СЗ 2 1000 м ясно +11.0 +0.3 48 +10 +10 1020.3 832.2 +7.3 +25.6
09 22.11 СЗ 1 1000 м ясно +9.0 -6.1 34 +9 +9 1024.2 833.1
12 22.11 СЗ 1 1000 м ясно +4.9 -7.0 42 +4 +4 1028.1 833.5 +4.3 +25.6
15 22.11 штиль 0 10 км ясно +9.7 -4.2 37 +10 +10 1032.1 834.6
18 22.11 С 2 10 км 3/0
[Ci fib]
+17.0 -5.5 21 +17 +26 1031.9 834.7 +2.1 +17.2
21 22.11 С 2 10 км 3/0
[Ci fib]
+20.4 -5.0 18 +21 +27 комфорт 1027.4 832.7
00 23.11 С 1 10 км 4/0
[Cs]
+17.2 -2.2 27 +18 +18 1023.7 831.6 +2.1 +20.8
03 23.11 С 1 1000 м ясно +11.2 -3.0 37 +12 +12 1023.6 833.2
12 23.11 С 1 1000 м ясно +2.4 -2.7 69 +1 +1 1029.5 832.1 +2.4 +25.6
15 23.11 С 1 10 км ясно +2.4 -2.2 72 +1 +3 1031.8 832.2
18 23.11 С 1 10 км ясно +18.4 -1.9 25 +20 +30 1031.1 832.7 +1.6 +18.4
21 23.11 С 1 10 км ясно +23.4 +3.4 27 +23 +31 комфорт 1025.0 830.6
00 24.11 С 2 10 км ясно +18.4 -3.9 22 +19 +19 1019.4 828.8 +1.6 +23.4
03 24.11 СЗ 2 1000 м ясно +10.0 -3.0 40 +9 +9 1018.4 829.5

 

Местоположение метеостанции Hidalgo del Parral (Мексика): широта 26.93 долгота -105.60 высота над уровнем моря 1661 м.

В архиве по умолчанию представлена погода в Hidalgo del Parral за последнюю неделю. Архивные данные за месяц целиком и за предыдущие месяцы, начиная с января 2011 года, Вы можете получить, выбрав интересующий диапазон дат из раскрывающегося списка и нажав кнопку "Ввод!".

Внимание! Время в таблицах - всемирное. Для получения местного времени необходимо прибавить поправку, которая в Hidalgo del Parral равна -6 ч.

Смотрите также архив погоды в соседних городах и на ближайших метеорологических станциях:

Погода в Tepehuanes (Мексика) (177 км)
Погода в Chihuahua University (Мексика) (193 км)
Погода в Chihuahua (Мексика) (202 км)
Погода в Choix (Мексика) (259 км)
Погода в Torreon (Мексика) (269 км)
Погода в Culiacan (Мексика) (298 км)
Погода в Temosachic (Мексика) (312 км)
Погода в Durango (Мексика) (336 км)
Погода в Monclova (Мексика) (417 км)
Погода в Sombrerete (Мексика) (419 км)

Пояснения к столбцам:

Ветер - указаны скорость ветра в м/с - средняя за 10 мин, порывы в срок и между сроками (в фигурных скобках) и направление, откуда дует ветер: С - северный, СВ - северо-восточный, В - восточный, ЮВ - юго-восточный, Ю - южный, ЮЗ - юго-западный, З - западный, СЗ - северо-западный.
Видимость - горизонтальная дальность видимости в метрах или километрах. При видимости от 1 до 10 км при отсутствии осадков обычно наблюдается дымка, при ухудшении видимости до 1 км и менее - туман. В сухую погоду видимость может ухудшаться дымом, пылью или мглою.
Явления - указаны атмосферные явления, наблюдавшиеся в срок или в последний час перед сроком; фигурными скобками обозначены явления, наблюдавшиеся между сроками (за 1-3 часа до срока); квадратными скобками обозначены град или гололедные отложения с указанием их диаметра в мм.
Облачность - указаны через наклонную черту общая и нижняя облачность в баллах и высота нижней границы облаков в метрах; квадратными скобками обозначены формы облаков: Ci - перистые, Cs - перисто-слоистые, Cc - перисто-кучевые, Ac - высококучевые, As - высокослоистые, Sc - слоисто-кучевые, Ns - слоисто-дождевые, Cu - кучевые, Cb - кучево-дождевые. Подробнее классификацию облаков см. в Атласе облаков (PDF).
T - Температура воздуха - температура, измеренная на высоте 2 м над землей.
Td - Температура точки росы - температура, при понижении до которой содержащийся в воздухе водяной пар достигнет насыщения.
f - Относительная влажность воздуха - влажноcть воздуха, измеренная на высоте 2 м над землей.
Te - Эффективная температура - температура, которую ощущает одетый по сезону человек в тени. Характеристика душности погоды. При расчете учитывается влияние влажности воздуха и скорости ветра на теплоощущения человека.
Tes - Эффективная температура на солнце - температура, которую ощущает человек, с поправкой на солнечный нагрев. Характеристика знойности погоды. Зависит от высоты солнца над горизонтом, облачности и скорости ветра. Ночью, в пасмурную погоду, а также при ветре 12 м/с и более поправка равна нулю.
P - Атмосферное давление - приведенное к уровню моря атмосферное давление.
Po - Атмосферное давление - измеренное на уровне метеостанции атмосферное давление.
Tmin - Минимальная температура - минимум температуры воздуха на высоте 2 м над землей.
Tmax - Максимальная температура - максимум температуры воздуха на высоте 2 м над землей.
R - Количество осадков - Количество выпавших осадков за период времени, мм. При наведении курсора мыши на число - период времени, за который выпало указанное количество осадков.
R24 - Количество осадков - Количество выпавших осадков за 24 часа, мм.
S - Снежный покров - Высота снежного покрова, см. При наведении курсора мыши на число - состояние снежного покрова и степень покрытия местности в баллах.